This is the latest recevied weather packets stored in our database for station/object SP1WSR-10. If no packets are shown the sender has not sent any weather packets the latest 10 day(s).
| Time | Temp. | Humidity | Pressure | Rain* | Wind** | Luminosity | Snow |
|---|---|---|---|---|---|---|---|
| 1788019564 | 27.22° C | 49% | 1012.1 hPa | - | - | - | - |
| 1788018964 | 27.78° C | 48% | 1012.1 hPa | - | - | - | - |
| 1788018364 | 28.89° C | 46% | 1012 hPa | - | - | - | - |
| 1788017764 | 27.22° C | 50% | 1012 hPa | - | - | - | - |
| 1788017163 | 27.22° C | 50% | 1011.8 hPa | - | - | - | - |
| 1788016564 | 27.22° C | 50% | 1011.8 hPa | - | - | - | - |
| 1788015963 | 27.22° C | 50% | 1011.7 hPa | - | - | - | - |
| 1788015363 | 27.22° C | 50% | 1011.7 hPa | - | - | - | - |
| 1788014763 | 27.22° C | 50% | 1011.6 hPa | - | - | - | - |
| 1788014162 | 27.78° C | 50% | 1011.5 hPa | - | - | - | - |
| 1788013561 | 27.22° C | 50% | 1011.5 hPa | - | - | - | - |
| 1788012961 | 27.22° C | 50% | 1011.5 hPa | - | - | - | - |
| 1788012361 | 27.22° C | 50% | 1011.6 hPa | - | - | - | - |
| 1788011761 | 27.22° C | 51% | 1011.6 hPa | - | - | - | - |
| 1788011161 | 27.22° C | 51% | 1011.5 hPa | - | - | - | - |
| 1788010560 | 27.22° C | 50% | 1011.6 hPa | - | - | - | - |
| 1788009961 | 27.22° C | 51% | 1011.7 hPa | - | - | - | - |
| 1788009360 | 27.22° C | 51% | 1011.7 hPa | - | - | - | - |
| 1788008760 | 27.22° C | 50% | 1011.7 hPa | - | - | - | - |
| 1788008160 | 27.22° C | 50% | 1011.8 hPa | - | - | - | - |
| 1788007560 | 27.22° C | 50% | 1011.7 hPa | - | - | - | - |
| 1788006960 | 27.22° C | 50% | 1011.7 hPa | - | - | - | - |
| 1788006360 | 26.67° C | 51% | 1011.7 hPa | - | - | - | - |
| 1788005760 | 27.22° C | 50% | 1011.7 hPa | - | - | - | - |
| 1788005159 | 26.67° C | 51% | 1011.8 hPa | - | - | - | - |
* Rain since midnight (hover to see other rain measurements)
** Current wind speed in m/s (hover to see current wind gust speed)